Time,TemperatureF,DewpointF,PressureIn,WindDirection,WindDirectionDegrees,WindSpeedMPH,WindSpeedGustMPH,Humidity,HourlyPrecipIn,Conditions,Clouds,dailyrainin,SoftwareType,DateUTC
2013-02-23 00:03:00,26.0,25.0,-100.00,NNE,15,4.0,5.0,97,-99.99,,,-99.99,,2013-02-23 05:03:00,
2013-02-23 00:22:00,26.0,25.0,-100.00,North,350,4.0,6.0,97,-99.99,,,-99.99,,2013-02-23 05:22:00,
2013-02-23 00:32:00,26.0,25.0,-100.00,North,10,4.0,4.0,97,-99.99,,,-99.99,,2013-02-23 05:32:00,
2013-02-23 00:42:00,26.0,25.0,-100.00,North,10,4.0,4.0,97,-99.99,,,-99.99,,2013-02-23 05:42:00,
2013-02-23 00:52:00,26.0,25.0,-100.00,North,10,2.0,4.0,97,-99.99,,,-99.99,,2013-02-23 05:52:00,
2013-02-23 01:01:00,26.0,25.0,-100.00,North,5,3.0,4.0,97,-99.99,,,-99.99,,2013-02-23 06:01:00,
2013-02-23 01:11:00,26.0,25.0,-100.00,North,5,3.0,4.0,97,-99.99,,,-99.99,,2013-02-23 06:11:00,
2013-02-23 01:22:00,26.0,25.0,-100.00,North,0,3.0,4.0,97,-99.99,,,-99.99,,2013-02-23 06:22:00,
2013-02-23 01:32:00,26.0,25.0,-100.00,North,0,3.0,4.0,97,-99.99,,,-99.99,,2013-02-23 06:32:00,
2013-02-23 01:41:00,26.0,25.0,-100.00,North,0,3.0,4.0,97,-99.99,,,-99.99,,2013-02-23 06:41:00,
2013-02-23 01:51:00,26.0,25.0,-100.00,North,0,2.0,4.0,97,-99.99,,,-99.99,,2013-02-23 06:51:00,
2013-02-23 02:01:00,25.0,25.0,-100.00,North,5,2.0,3.0,97,-99.99,,,-99.99,,2013-02-23 07:01:00,
2013-02-23 02:11:00,25.0,25.0,-100.00,North,5,2.0,3.0,97,-99.99,,,-99.99,,2013-02-23 07:11:00,
2013-02-23 02:21:00,25.0,24.0,-100.00,North,355,2.0,2.0,97,-99.99,,,-99.99,,2013-02-23 07:21:00,
2013-02-23 02:32:00,25.0,24.0,-100.00,North,0,2.0,2.0,96,-99.99,,,-99.99,,2013-02-23 07:32:00,
2013-02-23 02:42:00,25.0,24.0,-100.00,North,0,2.0,2.0,96,-99.99,,,-99.99,,2013-02-23 07:42:00,
2013-02-23 02:51:00,24.0,23.0,-100.00,North,0,2.0,3.0,96,-99.99,,,-99.99,,2013-02-23 07:51:00,
2013-02-23 03:01:00,24.0,24.0,-100.00,NW,315,1.0,2.0,97,-99.99,,,-99.99,,2013-02-23 08:01:00,
2013-02-23 03:11:00,24.0,24.0,-100.00,NW,315,1.0,2.0,97,-99.99,,,-99.99,,2013-02-23 08:11:00,
2013-02-23 03:21:00,24.0,23.0,-100.00,NW,315,0.0,1.0,96,-99.99,,,-99.99,,2013-02-23 08:21:00,
2013-02-23 03:31:00,23.0,22.0,-100.00,NW,315,1.0,1.0,96,-99.99,,,-99.99,,2013-02-23 08:31:00,
2013-02-23 03:42:00,23.0,22.0,-100.00,NW,315,1.0,1.0,96,-99.99,,,-99.99,,2013-02-23 08:42:00,
2013-02-23 03:52:00,23.0,22.0,-100.00,NNW,330,1.0,2.0,96,-99.99,,,-99.99,,2013-02-23 08:52:00,
2013-02-23 04:01:00,23.0,22.0,-100.00,NW,305,1.0,1.0,96,-99.99,,,-99.99,,2013-02-23 09:01:00,
2013-02-23 04:11:00,23.0,22.0,-100.00,NW,305,1.0,1.0,96,-99.99,,,-99.99,,2013-02-23 09:11:00,
2013-02-23 04:21:00,23.0,22.0,-100.00,NW,315,1.0,1.0,96,-99.99,,,-99.99,,2013-02-23 09:21:00,
2013-02-23 04:32:00,23.0,22.0,-100.00,WNW,290,2.0,2.0,96,-99.99,,,-99.99,,2013-02-23 09:32:00,
2013-02-23 04:42:00,23.0,22.0,-100.00,WNW,290,2.0,2.0,96,-99.99,,,-99.99,,2013-02-23 09:42:00,
2013-02-23 04:51:00,23.0,22.0,-100.00,WNW,300,2.0,4.0,96,-99.99,,,-99.99,,2013-02-23 09:51:00,
2013-02-23 05:01:00,23.0,22.0,-100.00,WNW,290,1.0,3.0,96,-99.99,,,-99.99,,2013-02-23 10:01:00,
2013-02-23 05:11:00,23.0,22.0,-100.00,WNW,290,1.0,3.0,96,-99.99,,,-99.99,,2013-02-23 10:11:00,
2013-02-23 05:21:00,23.0,22.0,-100.00,West,280,2.0,3.0,96,-99.99,,,-99.99,,2013-02-23 10:21:00,
2013-02-23 05:32:00,23.0,22.0,-100.00,West,280,1.0,2.0,96,-99.99,,,-99.99,,2013-02-23 10:32:00,
2013-02-23 05:42:00,23.0,22.0,-100.00,West,280,1.0,2.0,96,-99.99,,,-99.99,,2013-02-23 10:42:00,
2013-02-23 05:51:00,22.0,22.0,-100.00,West,280,2.0,2.0,96,-99.99,,,-99.99,,2013-02-23 10:51:00,
2013-02-23 06:02:00,22.0,21.0,-100.00,West,280,2.0,2.0,96,-99.99,,,-99.99,,2013-02-23 11:02:00,
2013-02-23 06:11:00,22.0,21.0,-100.00,West,280,2.0,2.0,96,-99.99,,,-99.99,,2013-02-23 11:11:00,
2013-02-23 06:21:00,21.0,20.0,-100.00,WNW,285,1.0,2.0,95,-99.99,,,-99.99,,2013-02-23 11:21:00,
2013-02-23 06:32:00,20.0,19.0,-100.00,West,280,2.0,2.0,95,-99.99,,,-99.99,,2013-02-23 11:32:00,
2013-02-23 06:42:00,20.0,19.0,-100.00,West,280,2.0,2.0,95,-99.99,,,-99.99,,2013-02-23 11:42:00,
2013-02-23 06:52:00,19.0,18.0,-100.00,WNW,300,1.0,2.0,95,-99.99,,,-99.99,,2013-02-23 11:52:00,
2013-02-23 07:02:00,18.0,16.0,-100.00,WNW,285,1.0,2.0,94,-99.99,,,-99.99,,2013-02-23 12:02:00,
2013-02-23 07:11:00,18.0,16.0,-100.00,WNW,285,1.0,2.0,94,-99.99,,,-99.99,,2013-02-23 12:11:00,
2013-02-23 07:21:00,17.0,16.0,-100.00,West,260,1.0,1.0,94,-99.99,,,-99.99,,2013-02-23 12:21:00,
2013-02-23 07:32:00,16.0,14.0,-100.00,West,280,1.0,1.0,93,-99.99,,,-99.99,,2013-02-23 12:32:00,
2013-02-23 07:42:00,16.0,14.0,-100.00,West,280,1.0,1.0,93,-99.99,,,-99.99,,2013-02-23 12:42:00,
2013-02-23 07:52:00,15.0,14.0,-100.00,West,260,1.0,1.0,93,-99.99,,,-99.99,,2013-02-23 12:52:00,
2013-02-23 08:01:00,15.0,13.0,-100.00,West,265,1.0,1.0,92,-99.99,,,-99.99,,2013-02-23 13:01:00,
2013-02-23 08:11:00,15.0,13.0,-100.00,West,265,1.0,1.0,92,-99.99,,,-99.99,,2013-02-23 13:11:00,
2013-02-23 08:22:00,14.0,12.0,-100.00,SW,215,1.0,1.0,91,-99.99,,,-99.99,,2013-02-23 13:22:00,
2013-02-23 08:32:00,13.0,11.0,-100.00,South,190,1.0,1.0,90,-99.99,,,-99.99,,2013-02-23 13:32:00,
2013-02-23 08:42:00,13.0,11.0,-100.00,South,190,1.0,1.0,90,-99.99,,,-99.99,,2013-02-23 13:42:00,
2013-02-23 08:52:00,12.0,10.0,-100.00,SW,220,1.0,1.0,90,-99.99,,,-99.99,,2013-02-23 13:52:00,
2013-02-23 09:02:00,14.0,11.0,-100.00,SSW,205,1.0,1.0,90,-99.99,,,-99.99,,2013-02-23 14:02:00,
2013-02-23 09:11:00,14.0,11.0,-100.00,SSW,205,1.0,1.0,90,-99.99,,,-99.99,,2013-02-23 14:11:00,
2013-02-23 09:21:00,15.0,13.0,-100.00,SSW,195,1.0,1.0,91,-99.99,,,-99.99,,2013-02-23 14:21:00,
2013-02-23 09:32:00,18.0,15.0,-100.00,SSW,210,1.0,1.0,91,-99.99,,,-99.99,,2013-02-23 14:32:00,
2013-02-23 09:42:00,18.0,15.0,-100.00,SSW,210,1.0,1.0,91,-99.99,,,-99.99,,2013-02-23 14:42:00,
2013-02-23 09:52:00,20.0,18.0,-100.00,WNW,290,1.0,1.0,92,-99.99,,,-99.99,,2013-02-23 14:52:00,
2013-02-23 10:02:00,23.0,21.0,-100.00,West,275,1.0,1.0,92,-99.99,,,-99.99,,2013-02-23 15:02:00,
2013-02-23 10:11:00,23.0,21.0,-100.00,West,275,1.0,1.0,92,-99.99,,,-99.99,,2013-02-23 15:11:00,
2013-02-23 10:22:00,24.0,22.0,-100.00,West,275,1.0,2.0,91,-99.99,,,-99.99,,2013-02-23 15:22:00,
2013-02-23 10:32:00,26.0,24.0,-100.00,West,265,2.0,3.0,90,-99.99,,,-99.99,,2013-02-23 15:32:00,
2013-02-23 10:42:00,26.0,24.0,-100.00,West,265,2.0,3.0,90,-99.99,,,-99.99,,2013-02-23 15:42:00,
2013-02-23 10:51:00,27.0,24.0,-100.00,West,280,1.0,3.0,88,-99.99,,,-99.99,,2013-02-23 15:51:00,
2013-02-23 11:01:00,29.0,26.0,-100.00,West,265,1.0,3.0,87,-99.99,,,-99.99,,2013-02-23 16:01:00,
2013-02-23 11:21:00,31.0,27.0,-100.00,West,265,1.0,3.0,83,-99.99,,,-99.99,,2013-02-23 16:21:00,
2013-02-23 11:31:00,33.0,28.0,-100.00,NW,310,1.0,2.0,80,-99.99,,,-99.99,,2013-02-23 16:31:00,
2013-02-23 11:51:00,35.0,28.0,-100.00,West,265,1.0,1.0,73,-99.99,,,-99.99,,2013-02-23 16:51:00,
2013-02-23 12:01:00,37.0,29.0,-100.00,SSE,160,0.0,1.0,72,-99.99,,,-99.99,,2013-02-23 17:01:00,
2013-02-23 12:21:00,37.0,29.0,-100.00,North,5,0.0,1.0,73,-99.99,,,-99.99,,2013-02-23 17:21:00,
2013-02-23 12:32:00,38.0,29.0,-100.00,North,10,1.0,2.0,68,-99.99,,,-99.99,,2013-02-23 17:32:00,
2013-02-23 12:52:00,35.0,28.0,-100.00,South,185,1.0,2.0,74,-99.99,,,-99.99,,2013-02-23 17:52:00,
2013-02-23 13:01:00,35.0,29.0,-100.00,SSW,200,4.0,6.0,79,-99.99,,,-99.99,,2013-02-23 18:01:00,
2013-02-23 13:12:00,35.0,29.0,-100.00,SSW,200,4.0,6.0,79,-99.99,,,-99.99,,2013-02-23 18:12:00,
2013-02-23 13:22:00,35.0,28.0,-100.00,West,275,4.0,6.0,75,-99.99,,,-99.99,,2013-02-23 18:22:00,
2013-02-23 13:32:00,34.0,27.0,-100.00,WSW,240,4.0,6.0,76,-99.99,,,-99.99,,2013-02-23 18:32:00,
2013-02-23 13:42:00,34.0,27.0,-100.00,WSW,240,4.0,6.0,76,-99.99,,,-99.99,,2013-02-23 18:42:00,
2013-02-23 13:51:00,35.0,28.0,-100.00,SW,235,4.0,6.0,78,-99.99,,,-99.99,,2013-02-23 18:51:00,
2013-02-23 14:01:00,34.0,27.0,-100.00,West,280,3.0,6.0,76,-99.99,,,-99.99,,2013-02-23 19:01:00,
2013-02-23 14:11:00,34.0,27.0,-100.00,West,280,3.0,6.0,76,-99.99,,,-99.99,,2013-02-23 19:11:00,
2013-02-23 14:21:00,34.0,28.0,-100.00,West,270,4.0,6.0,79,-99.99,,,-99.99,,2013-02-23 19:21:00,
2013-02-23 14:32:00,36.0,28.0,-100.00,West,270,1.0,6.0,74,-99.99,,,-99.99,,2013-02-23 19:32:00,
2013-02-23 14:41:00,36.0,28.0,-100.00,West,270,1.0,6.0,74,-99.99,,,-99.99,,2013-02-23 19:41:00,
2013-02-23 14:52:00,35.0,28.0,-100.00,West,280,1.0,5.0,75,-99.99,,,-99.99,,2013-02-23 19:52:00,
2013-02-23 15:01:00,36.0,29.0,-100.00,SW,220,2.0,6.0,75,-99.99,,,-99.99,,2013-02-23 20:01:00,
2013-02-23 15:11:00,36.0,29.0,-100.00,SW,220,2.0,6.0,75,-99.99,,,-99.99,,2013-02-23 20:11:00,
2013-02-23 15:21:00,36.0,28.0,-100.00,WSW,245,6.0,7.0,74,-99.99,,,-99.99,,2013-02-23 20:21:00,
2013-02-23 15:32:00,35.0,29.0,-100.00,WSW,240,5.0,9.0,79,-99.99,,,-99.99,,2013-02-23 20:32:00,
2013-02-23 15:42:00,35.0,29.0,-100.00,WSW,240,5.0,9.0,79,-99.99,,,-99.99,,2013-02-23 20:42:00,
2013-02-23 15:52:00,35.0,29.0,-100.00,WSW,240,4.0,7.0,81,-99.99,,,-99.99,,2013-02-23 20:52:00,
2013-02-23 16:01:00,34.0,29.0,-100.00,SW,225,4.0,6.0,82,-99.99,,,-99.99,,2013-02-23 21:01:00,
2013-02-23 16:11:00,34.0,29.0,-100.00,SW,225,4.0,6.0,82,-99.99,,,-99.99,,2013-02-23 21:11:00,
2013-02-23 16:22:00,34.0,30.0,-100.00,West,260,4.0,8.0,87,-99.99,,,-99.99,,2013-02-23 21:22:00,
2013-02-23 16:32:00,33.0,31.0,-100.00,WNW,285,4.0,6.0,90,-99.99,,,-99.99,,2013-02-23 21:32:00,
2013-02-23 16:42:00,33.0,31.0,-100.00,WNW,285,4.0,6.0,90,-99.99,,,-99.99,,2013-02-23 21:42:00,
2013-02-23 16:51:00,33.0,31.0,-100.00,West,280,2.0,6.0,91,-99.99,,,-99.99,,2013-02-23 21:51:00,
2013-02-23 17:01:00,34.0,31.0,-100.00,WNW,285,2.0,4.0,91,-99.99,,,-99.99,,2013-02-23 22:01:00,
2013-02-23 17:11:00,34.0,31.0,-100.00,WNW,285,2.0,4.0,91,-99.99,,,-99.99,,2013-02-23 22:11:00,
2013-02-23 17:22:00,34.0,31.0,-100.00,South,180,1.0,4.0,91,-99.99,,,-99.99,,2013-02-23 22:22:00,
2013-02-23 17:32:00,34.0,31.0,-100.00,West,265,3.0,4.0,91,-99.99,,,-99.99,,2013-02-23 22:32:00,
2013-02-23 17:42:00,34.0,31.0,-100.00,West,265,3.0,4.0,91,-99.99,,,-99.99,,2013-02-23 22:42:00,
2013-02-23 17:51:00,34.0,31.0,-100.00,West,260,2.0,4.0,91,-99.99,,,-99.99,,2013-02-23 22:51:00,
2013-02-23 18:01:00,34.0,32.0,-100.00,West,275,3.0,4.0,92,-99.99,,,-99.99,,2013-02-23 23:01:00,
2013-02-23 18:11:00,34.0,32.0,-100.00,West,275,3.0,4.0,92,-99.99,,,-99.99,,2013-02-23 23:11:00,
2013-02-23 18:21:00,34.0,32.0,-100.00,WNW,300,4.0,5.0,93,-99.99,,,-99.99,,2013-02-23 23:21:00,
2013-02-23 18:31:00,34.0,32.0,-100.00,NW,305,2.0,6.0,94,-99.99,,,-99.99,,2013-02-23 23:31:00,
2013-02-23 18:42:00,34.0,32.0,-100.00,NW,305,2.0,6.0,94,-99.99,,,-99.99,,2013-02-23 23:42:00,
2013-02-23 18:52:00,33.0,32.0,-100.00,NNW,340,1.0,4.0,96,-99.99,,,-99.99,,2013-02-23 23:52:00,
2013-02-23 19:01:00,34.0,33.0,-100.00,ENE,60,0.0,1.0,96,-99.99,,,-99.99,,2013-02-24 00:01:00,
2013-02-23 19:11:00,34.0,33.0,-100.00,ENE,60,0.0,1.0,96,-99.99,,,-99.99,,2013-02-24 00:11:00,
2013-02-23 19:22:00,34.0,33.0,-100.00,NE,45,5.0,8.0,97,-99.99,,,-99.99,,2013-02-24 00:22:00,
2013-02-23 19:32:00,33.0,33.0,-100.00,North,10,4.0,9.0,98,-99.99,,,-99.99,,2013-02-24 00:32:00,
2013-02-23 19:42:00,33.0,33.0,-100.00,North,10,4.0,9.0,98,-99.99,,,-99.99,,2013-02-24 00:42:00,
2013-02-23 19:52:00,33.0,32.0,-100.00,North,5,6.0,14.0,97,-99.99,,,-99.99,,2013-02-24 00:52:00,
2013-02-23 20:01:00,33.0,32.0,-100.00,North,355,8.0,11.0,96,-99.99,,,-99.99,,2013-02-24 01:01:00,
2013-02-23 20:11:00,33.0,32.0,-100.00,North,355,8.0,11.0,96,-99.99,,,-99.99,,2013-02-24 01:11:00,
2013-02-23 20:22:00,33.0,31.0,-100.00,North,0,7.0,11.0,94,-99.99,,,-99.99,,2013-02-24 01:22:00,
2013-02-23 20:31:00,33.0,31.0,-100.00,North,0,10.0,14.0,93,-99.99,,,-99.99,,2013-02-24 01:31:00,
2013-02-23 20:42:00,33.0,31.0,-100.00,North,0,10.0,14.0,93,-99.99,,,-99.99,,2013-02-24 01:42:00,
2013-02-23 20:51:00,33.0,30.0,-100.00,NNW,345,6.0,10.0,92,-99.99,,,-99.99,,2013-02-24 01:51:00,
2013-02-23 21:01:00,33.0,31.0,-100.00,North,5,7.0,14.0,93,-99.99,,,-99.99,,2013-02-24 02:01:00,
2013-02-23 21:11:00,33.0,31.0,-100.00,North,5,7.0,14.0,93,-99.99,,,-99.99,,2013-02-24 02:11:00,
2013-02-23 21:21:00,33.0,31.0,-100.00,North,10,6.0,11.0,94,-99.99,,,-99.99,,2013-02-24 02:21:00,
2013-02-23 21:32:00,32.0,31.0,-100.00,North,5,6.0,9.0,95,-99.99,,,-99.99,,2013-02-24 02:32:00,
2013-02-23 21:42:00,32.0,31.0,-100.00,North,5,6.0,9.0,95,-99.99,,,-99.99,,2013-02-24 02:42:00,
2013-02-23 21:52:00,32.0,31.0,-100.00,North,0,4.0,8.0,95,-99.99,,,-99.99,,2013-02-24 02:52:00,
2013-02-23 22:02:00,32.0,31.0,-100.00,North,350,4.0,9.0,95,-99.99,,,-99.99,,2013-02-24 03:02:00,
2013-02-23 22:11:00,32.0,31.0,-100.00,North,350,4.0,9.0,95,-99.99,,,-99.99,,2013-02-24 03:11:00,
2013-02-23 22:21:00,32.0,31.0,-100.00,North,355,7.0,10.0,94,-99.99,,,-99.99,,2013-02-24 03:21:00,
2013-02-23 22:32:00,32.0,31.0,-100.00,North,350,6.0,11.0,94,-99.99,,,-99.99,,2013-02-24 03:32:00,
2013-02-23 22:42:00,32.0,31.0,-100.00,North,350,6.0,11.0,94,-99.99,,,-99.99,,2013-02-24 03:42:00,
2013-02-23 22:52:00,32.0,30.0,-100.00,NNW,340,6.0,11.0,93,-99.99,,,-99.99,,2013-02-24 03:52:00,
2013-02-23 23:01:00,32.0,30.0,-100.00,NNW,345,6.0,12.0,93,-99.99,,,-99.99,,2013-02-24 04:01:00,
2013-02-23 23:11:00,32.0,30.0,-100.00,NNW,345,6.0,12.0,93,-99.99,,,-99.99,,2013-02-24 04:11:00,
2013-02-23 23:21:00,32.0,30.0,-100.00,NNW,345,6.0,10.0,93,-99.99,,,-99.99,,2013-02-24 04:21:00,
2013-02-23 23:32:00,32.0,30.0,-100.00,NNW,345,5.0,9.0,93,-99.99,,,-99.99,,2013-02-24 04:32:00,
2013-02-23 23:42:00,32.0,30.0,-100.00,NNW,345,5.0,9.0,93,-99.99,,,-99.99,,2013-02-24 04:42:00,
2013-02-23 23:52:00,32.0,30.0,-100.00,North,355,7.0,11.0,94,-99.99,,,-99.99,,2013-02-24 04:52:00,